SL-14 DEB, 45305

Orbit data source: Space-Track

SL-14 DEB, 45305 is space debris in LEO originally from a launch on Thu, 15 Aug 1991 UTC launched from the Plesetsk Missile And Space Complex (PKMTR). Debris objects in space refer to the collection of defunct objects orbiting the Earth. Examples of debris include non-operational satellites, rocket bodies, and fragments generated from explosions, collisions, or faulty payload assembly.

Loading next visibility...
Identifier
45305, 1991-056AT
Orbit
LEO
Country
Flag of CISCIS
Related business
Manufacturer
Unknown
Mission
Spacecraft
Bus & Motor
Unknown
Mass
Unknown
Launch date (UTC)
1991-08-15 (34 years ago)
Launch vehicle
Unknown
Launch site
Plesetsk Missile And Space Complex (PKMTR)
Object type
Payload
Rocket body
Debris
Shape & HBR
Unknown shape, 0.1 m
Radar Cross Section
Small (<0.1 m²)

Expand to show TLE details & history
Last TLE update: 1 day ago

TLE from 1 day ago
0 SL-14 DEB
1 45305U 91056AT  26034.90578029  .00002383  00000-0  48598-2 0  9995
2 45305  82.5626 210.5217 0040882 264.3828  95.2641 13.32581150287701
Epoch: 2026-02-03T21:44Z
TLE epoch observation values (Epoch: 2026-02-03T21:44:19.417Z)
Latitude
0.00007°
Longitude
110.3608°
Altitude
1,142.817 km
Speed
7.28 km/s
True Right ascension
14h 02m 05s
True Declination
0° 00' 00"
Sunlit
Object was in daylight at epoch
Visualization orbit readout
Latitude
Unknown
Longitude
Unknown
Altitude
Unknown
Speed
Unknown
Apparent Right ascension
Unknown
Apparent Declination
Unknown
Sunlit
N/A
Visualization observer readout
Local Sidereal Time
03:53:14
Azimuth
Unknown
Elevation
Unknown
Doppler factor
Unknown
Orbital elements
Apogee altitude
1,164.978 km
Perigee altitude
1,103.553 km
Semi-major axis
7,512.403 km
Eccentricity
0.00409
Inclination
82.5626°
RAAN
210.5217°
Arg. of periapsis
264.3828°
True anomaly
95.73037°
Mean anomaly
95.2641°
Eccentric anomaly
95.49726°
Mean motion
3.3333 °/min
Orbital period
108 mins
BSTAR
0.0048598
Loading maneuver chart data...
Computing Atmospheric mass density...
Loading historical data...
Loading historical data...
Loading historical data...
Loading historical data...
Loading historical data...
Loading historical data...
Loading historical data...

Documentation

Showing up to 5 results
|